Other Surface Observations
Issued by NWS Charleston, SC

Home | Current Version | Previous Version | Text Only | Print | Product List | Glossary On
Versions: 1 2 3 4 5 6 7 8 9 10 11 12 13 14 15 16 17 18 19 20 21 22 23 24 25 26 27 28 29 30 31 32 33 34 35 36 37 38 39 40 41 42 43 44 45 46 47 48 49 50
000
SXUS52 KCHS 301412
OSOCHS

MARINE OBSERVATIONS
NATIONAL WEATHER SERVICE CHARLESTON SC
1000 AM EDT SUN AUG 30 2015

...DOWNTOWN CHARLESTON AND HARBOR...

CITY           SKY/WX    TMP DP  RH WIND       PRES   REMARKS
WATERFRONT PRK   N/A     77  74  91 NE6       30.08S

...LAKE MOULTRIE...

CITY           SKY/WX    TMP DP  RH WIND       PRES   REMARKS
PINOPOLIS        N/A     77  72  83 VRB3      30.04R

...LAKE AND SUPPLEMENTAL COASTAL OBSERVATIONS...

STATION/POSITION TIME  TEMP    WIND        PRES    WAVE   SWELL
                       AIR SEA DIR/SP/G            HT/PER HT/PER/DIR
                 (UTC) (F)     (DEG/KT/KT) (MB)    (FT/S) (FT/S/D)
FORT PULASKI     NOT AVBL
SAPELO ISLAND    1300   79     100/  2     1018.0S
UPR LAKE MARION  NOT AVBL
WINYAH BAY       NOT AVBL
LAKE MURRAY      1300   73      10/  2/  3 1020.0S
ACE BASIN NERRS  NOT AVBL


...C-MAN AND BUOY OBSERVATIONS...

STATION/POSITION TIME  TEMP    WIND        PRES    WAVE   SWELL
                       AIR SEA DIR/SP/G            HT/PER HT/PER/DIR
                 (UTC) (F)     (DEG/KT/KT) (MB)    (FT/S) (FT/S/D)
BUOY 41004       1350   78 85   90/  6/ 10 1019.6R   4/11   3/11
BUOY 41008       1250   81 84  110/  6/  8 1018.5    5/11   5/ 90/11
FOLLY BEACH CMAN 1400   79      70/  8/  9 1019.8R
CAPERS NS BUOY   NOT AVBL
FRIPP NS BUOY    NOT AVBL
5E ST. MARYS GA  1321      86                N/A     4/10   2/100/11


STATION/POSITION TIME  TEMP    WIND        PRES    WAVE   SWELL
                       AIR SEA DIR/SP/G            HT/PER HT/PER/DIR
                 (UTC) (F)     (DEG/KT/KT) (MB)    (FT/S) (FT/S/D)
FRYING PAN BUOY  1350   80 82   80/ 10/ 12 1021.5R   4/10   3/130/10
BUOY 41025       1350   78 84  360/ 10/ 14 1020.6R   4/10   3/ 90/10
CAPE LOOKOUT NC  1400   77     360/  4/  5 1021.0R
BUOY 41002       1350   84 84  230/  4/  6 1021.3R   4/10   5/140/10
BUOY 41010       1320   85 85  130/ 17/ 19 1017.5R
ST AUGUSTINE FL  1400   78 83   90/ 12/ 14 1017.7R

$$



USA.gov is the U.S. government's official web portal to all federal, state and local government web resources and services.